Location: Ballingbuur
(53.0000°N, 5.7667°E)
Time: 19:49:15
(UTC+00:00)

Cosmos 1356 - Pass Details

Date: 19 April 2021
Orbit: 438 x 442 km, 81.1° (Epoch: 13 May)

Event Time Altitude Azimuth Distance (km) Brightness Sun altitude
Rises 20:18:55 0° 341° (NNW) 2,453 8.2 -13.1°
Reaches altitude 10° 20:21:03 10° 334° (NNW) 1,576 7.3 -13.3°
Maximum altitude 20:24:18 41° 263° (W) 662 4.6 -13.7°
Drops below altitude 10° 20:27:31 10° 192° (SSW) 1,560 5.8 -14.0°
Enters shadow 20:27:38 - 192° (SSW) 1,606 5.9 -14.0°
